Regional Weather Roundup
Issued by NWS Columbia, SC

Home | Current Version | Previous Version | Text Only | Print | Product List | Glossary On
Versions: 1 2 3 4 5 6 7 8 9 10 11 12 13 14 15 16 17 18 19 20 21 22 23 24 25 26 27 28 29 30 31 32 33 34 35 36 37 38 39 40 41 42 43 44 45 46 47 48 49 50
000
ASUS42 KCAE 162310
RWRCAE
REGIONAL WEATHER ROUNDUP
NATIONAL WEATHER SERVICE COLUMBIA SC
700 PM EDT TUE SEP 16 2014

NOTE: "FAIR" INDICATES FEW OR NO CLOUDS BELOW 12,000 FEET WITH NO
SIGNIFICANT WEATHER AND/OR OBSTRUCTIONS TO VISIBILITY.

NOT ALL STATIONS ARE QUALITY CONTROLLED BY THE NATIONAL
WEATHER SERVICE. USE DATA WITH CAUTION...ESPECIALLY
DEWPOINT OBSERVATIONS.

SCZ001>056-GAZ040-063>065-077-170000-
...UPSTATE SOUTH CAROLINA...

CITY           SKY/WX    TMP DP  RH WIND       PRES   REMARKS
ANDERSON       PTCLDY    83  67  58 W7        29.95S
LIBERTY        FAIR      81  68  65 E9        29.97R
SPARTANBURG    FAIR      79  70  73 W6        29.95S
CLEMSON        PTCLDY    82  65  56 W9        29.97R
GREENVILLE     MOCLDY    72  69  90 SE7       29.98S
GREENWOOD      PTCLDY    83  69  62 W3        29.96S
GREER          MOCLDY    70  68  93 SW7       29.96F
ROCK HILL      PTCLDY    78  69  73 CALM      29.94F
CHESTER        FAIR      81  64  57 S3        29.99S
LAURENS        FAIR      79  63  57 CALM      29.97R


...CENTRAL SOUTH CAROLINA...

CITY           SKY/WX    TMP DP  RH WIND       PRES   REMARKS
COLUMBIA APT   PTCLDY    88  66  48 CALM      29.92R
COLUMBIA OWENS PTCLDY    85  69  58 E3        29.94R
DARLINGTON     CLEAR     81  68  65 SE5       29.94S
FLORENCE       CLEAR     82  69  64 E6        29.94R
MCENTIRE ANGB  MOCLDY    80  73  80 E2        29.94R
ORANGEBURG     CLEAR     79  72  79 CALM      29.93S
SUMTER SHAW    PTCLDY    82  70  66 E5        29.93R
NEWBERRY       FAIR      82  66  57 CALM      29.96S
AIKEN          FAIR      86  72  62 CALM      29.98S
BARNWELL       FAIR      84  72  65 CALM      29.93S
MANNING        MOCLDY    77  73  88 CALM      29.95R
CAMDEN         FAIR      81  72  74 CALM      29.95R
LANCASTER      FAIR      82  72  69 S5        29.94S
WINNSBORO      FAIR      82  70  65 E5        29.94S


...EASTERN AND COASTAL SOUTH CAROLINA...

CITY           SKY/WX    TMP DP  RH WIND       PRES   REMARKS
MYRTLE BEACH   MOCLDY    81  73  78 S6        29.94F
N MYRTLE BCH   PTCLDY    80  72  76 E5        29.94S
CONWAY         FAIR      79  72  78 S3        29.94S HAZE
MARION         FAIR      81  68  65 E3        29.94S
HARTSVILLE     FAIR      81  54  39 CALM      29.95S
FLORENCE       CLEAR     82  69  64 E6        29.94R
DARLINGTON     CLEAR     81  68  65 SE5       29.94S
CHARLESTON APT LGT RAIN  75  72  90 CALM      29.97S
MOUNT PLEASANT DRIZZLE   75  73  94 CALM      29.96S
WALTERBORO     CLOUDY    77  77 100 SE10      29.96S THUNDER
BEAUFORT       TSTM      74  73  97 CALM      29.96F


...EASTERN GEORGIA...

CITY           SKY/WX    TMP DP  RH WIND       PRES   REMARKS
AUGUSTA BUSH F MOCLDY    80  72  76 CALM      29.92S
AUGUSTA DANIEL MOCLDY    85  69  58 CALM      29.94F
THOMSON        MOCLDY    83  80  88 CALM      29.99R HX  96
WASHINGTON     FAIR      86  79  79 CALM      29.95S HX  99
CLAXTON        FAIR      81  75  83 CALM      29.95R
SYLVANIA       PTCLDY    85  79  82 CALM      29.94R HX  98
STATESBORO     PTCLDY    83  75  75 SW3       29.94
SAVANNAH       CLOUDY    79  68  69 S9        29.95R


...SOUTHERN NORTH CAROLINA...

CITY           SKY/WX    TMP DP  RH WIND       PRES   REMARKS
CHARLOTTE      MOCLDY    81  66  60 SW5       29.94F
MONROE         PTCLDY    79  68  69 NE3       29.94S
WADESBORO      CLEAR     82  67  60 CALM      29.93S
ROCKINGHAM     CLEAR     80  69  68 SE5       29.94S
RUTHERFORDTON  MOCLDY    76  68  76 CALM      29.97S
ASHEVILLE      MOCLDY    73  64  73 N10       30.03S

$$



USA.gov is the U.S. government's official web portal to all federal, state and local government web resources and services.